Location: Chacón
(10.5789°N, 66.9317°W)
Time: 13:20:56
(UTC+00:00)

CZ-4B R/B - Visible Passes

Search period start: 17 July 2025 00:00
Search period end: 27 July 2025 00:00
Orbit: 808 x 880 km, 98.9° (Epoch: 17 July)

Date Brightness Start Highest point End Pass type
(mag) Time Alt. Az. Time Alt. Az. Time Alt. Az.
17 Jul 4.0 00:30:44 31° ENE 00:30:44 31° ENE 00:34:50 10° NNE visible
17 Jul 5.8 02:12:36 14° WNW 02:12:36 14° WNW 02:13:54 10° WNW visible
18 Jul 4.4 00:16:48 22° ENE 00:16:48 22° ENE 00:20:29 10° NNE visible
18 Jul 5.4 01:58:40 20° WNW 01:58:40 20° WNW 02:01:02 10° NW visible
19 Jul 4.8 00:02:52 15° ENE 00:02:52 15° ENE 00:05:45 10° NE visible
19 Jul 4.9 01:44:44 28° WNW 01:44:44 28° WNW 01:47:50 10° NW visible
20 Jul 4.3 01:30:47 39° NW 01:30:47 39° NW 01:34:24 10° NNW visible
21 Jul 3.8 01:16:52 49° NNW 01:16:52 49° NNW 01:20:48 10° NNW visible
22 Jul 3.6 01:02:56 52° N 01:02:56 52° N 01:07:02 10° N visible
23 Jul 3.7 00:49:00 44° NE 00:49:00 44° NE 00:53:08 10° N visible
24 Jul 4.0 00:35:05 33° NE 00:35:05 33° NE 00:39:04 10° N visible
24 Jul 5.9 02:16:56 12° WNW 02:16:56 12° WNW 02:17:42 10° WNW visible
25 Jul 4.4 00:21:09 24° ENE 00:21:09 24° ENE 00:24:48 10° NNE visible
25 Jul 5.5 02:03:01 18° WNW 02:03:01 18° WNW 02:04:58 10° NW visible
26 Jul 4.7 00:07:14 17° ENE 00:07:14 17° ENE 00:10:13 10° NE visible
26 Jul 5.1 01:49:05 25° WNW 01:49:05 25° WNW 01:51:50 10° NW visible
26 Jul 5.1 23:53:18 11° ENE 23:53:18 11° ENE 23:54:51 10° NE visible
